Hourly Data Report for October 10, 2016

All times are specified in Local Standard Time (LST). Add 1 hour to adjust for Daylight Saving Time where and when it is observed.

PENTICTON A
BRITISH COLUMBIA

49°27'45.000" N
119°36'08.000" W
344.40 m
1126146
71889
YYF

Download Data

Hourly Data (October 2016)
Hourly Data Report for October 10, 2016
Temp Definition
°C
Dew Point Temp Definition
°C
Rel Hum Definition
%
Wind Dir Definition
10's deg

Wind Spd Definition
km/h
Visibility Definition
km
Stn Press Definition
kPa
Hmdx Definition


Wind Chill Definition


Weather Definition


TIME
00:00 Legend Double Dagger 8.7 -0.6 52 32 26 24.1 97.38     LegendNANA
01:00 Legend Double Dagger 8.4 0.4 57 32 20 24.1 97.42     Mostly Cloudy
02:00 Legend Double Dagger 7.9 -3.0 46 32 20 24.1 97.47     LegendNANA
03:00 Legend Double Dagger 7.5 -3.1 47 33 27 24.1 97.51     LegendNANA
04:00 Legend Double Dagger 7.6 -4.2 43 33 27 24.1 97.58     Cloudy
05:00 Legend Double Dagger 7.0 -4.7 43 35 26 24.1 97.67     LegendNANA
06:00 Legend Double Dagger 6.5 -5.2 43 35 22 24.1 97.74     LegendNANA
07:00 Legend Double Dagger 6.4 -5.0 44 34 16 24.1 97.80     Mostly Cloudy
08:00 Legend Double Dagger 7.1 -5.6 40 36 25 24.1 97.86     LegendNANA
09:00 Legend Double Dagger 7.2 -5.5 40 35 21 24.1 97.91     LegendNANA
10:00 Legend Double Dagger 7.5 -4.3 43 35 13 24.1 97.95     Mostly Cloudy
11:00 Legend Double Dagger 7.7 -3.8 44 36 13 24.1 97.97     LegendNANA
12:00 Legend Double Dagger 8.8 -3.1 43 36 17 24.1 97.95     LegendNANA
13:00 Legend Double Dagger 9.0 -2.9 43 2 18 24.1 97.95     Mostly Cloudy
14:00 Legend Double Dagger 9.6 -2.3 43 35 23 24.1 97.95     LegendNANA
15:00 Legend Double Dagger 9.2 -2.4 44 1 21 24.1 97.96     LegendNANA
16:00 Legend Double Dagger 8.7 -2.0 47 35 24 24.1 97.99     Mostly Cloudy
17:00 Legend Double Dagger 8.0 -1.8 50 1 14 24.1 98.00     LegendNANA
18:00 Legend Double Dagger 7.6 -1.6 52 35 12 24.1 98.06     LegendNANA
19:00 Legend Double Dagger 7.8 -2.5 48 33 16 24.1 98.08     Mostly Cloudy
20:00 Legend Double Dagger 7.4 -2.3 50 35 10 24.1 98.14     LegendNANA
21:00 Legend Double Dagger 7.2 -2.5 50 31 13 24.1 98.15     LegendNANA
22:00 Legend Double Dagger 5.9 -1.3 60 3 12 24.1 98.16     Mainly Clear
23:00 Legend Double Dagger 5.3 -1.6 61 4 10 24.1 98.19     LegendNANA

Notes on Data Quality.

Legend

  • E = Estimated
  • M = Missing
  • NA = Not Available
  • ‡ = Partner data that is not subject to review by the National Climate Archives
Date modified: